[[{"header":{"parameterUnit":"m.s-1","parameterCategory":1,"la1":30.2991,"la2":30.254,"lo1":-89.0895,"lo2":-89.0444,"dy":0.0017,"dx":0.0017,"nx":28,"ny":28,"refTime":"2023-10-22T21:00:00:Z","depth":0,"parameterNumber":2,"parameterNumberName":"U-component_of_WINDS"},"data":[0,0,0,0,0,0,0,0,0,0,0,0,0,0,0,0,0,0,0,0,0,0,0,0,0,0,0,0,0,0,0,0,0,0,0,0,0,0,0,0,0,0,0,0,0,0,0,0,0,0,0,0,0,0,0,0,0,0,0.7049,0.705,0,0.7148,0.7149,0.715,0.7173,0.7173,0.7172,0.7171,0.7276,0.7279,0.7283,0,0,0,0,0,0,0,0,0,0,0,0,0,0.6881,0.6884,0.7049,0.705,0.7051,0.7148,0.7149,0.7151,0.7173,0.7173,0.7172,0.7171,0.7275,0.7279,0.7283,0,0,0,0,0,0,0,0,0,0,0,0,0,0.6964,0.6885,0.7049,0.7074,0.7077,0.7148,0.7149,0.7151,0.7174,0.7173,0.7171,0.717,0.7274,0.7279,0.7284,0.7336,0,0,0.7299,0.7302,0,0,0,0,0,0,0,0,0.6959,0.697,0.7069,0.7073,0.7076,0.7147,0.7128,0.7213,0.7174,0.7137,0.7171,0.717,0.7234,0.7243,0.7264,0.7341,0.7346,0.73,0.7303,0.7305,0.7307,0,0,0,0,0,0,0,0.6954,0.6966,0.7088,0.7071,0.7075,0.7081,0.7092,0.7145,0.719,0.714,0.7142,0.7153,0.7236,0.7258,0.7266,0.7347,0.73,0.7304,0.7307,0.7309,0.7472,0.7473,0,0,0,0,0,0,0.6943,0.6961,0.7085,0.7091,0.7014,0.7085,0.7097,0.7126,0.719,0.7199,0.7154,0.7154,0.725,0.726,0.727,0.7335,0.7305,0.731,0.7313,0.7471,0.7472,0.7474,0,0,0,0,0,0,0.6939,0.6954,0.7081,0.7027,0.7043,0.7089,0.7121,0.7128,0.7151,0.72,0.7209,0.7169,0.725,0.7263,0.7319,0.7339,0.7312,0.7317,0.747,0.7471,0.7473,0.7466,0,0,0,0,0,0,0.6934,0.6952,0.6973,0.7027,0.7046,0.7128,0.7122,0.7131,0.7159,0.716,0.7216,0.7225,0.725,0.7311,0.7324,0.7346,0.7321,0.7468,0.747,0.7473,0.7465,0.7468,0.747,0,0,0,0,0,0.6928,0.6968,0.6973,0.6988,0.7072,0.7129,0.714,0.7168,0.7161,0.7181,0.7213,0.7223,0.7335,0.7317,0.7332,0.7355,0.7467,0.747,0.7472,0.7464,0.7467,0.747,0,0,0,0,0,0,0.6916,0.6975,0.6982,0.704,0.7079,0.7133,0.716,0.717,0.7213,0.7212,0.7245,0.7258,0.7312,0.7339,0.7319,0.7409,0.7401,0.7407,0.7389,0.7393,0.7395,0.7387,0.7325,0,0,0,0,0,0.6919,0.696,0.701,0.7056,0.7075,0.7114,0.714,0.7157,0.72,0.7217,0.7253,0.7294,0.7338,0.7367,0.7411,0.7469,0.7481,0.7492,0.7495,0.7496,0.7501,0.7533,0.7538,0.7483,0.7483,0.7483,0,0,0.6928,0.6965,0.6989,0.7055,0.7087,0.7128,0.7128,0.7172,0.7204,0.7224,0.7279,0.7307,0.7355,0.7412,0.7439,0.7436,0.7519,0.75,0.7501,0.7505,0.7536,0.7542,0.7546,0.7485,0.7484,0.7484,0,0,0.6964,0.6997,0.7038,0.707,0.7119,0.7144,0.7154,0.7206,0.7225,0.728,0.7296,0.7334,0.741,0.7443,0.747,0.7518,0.7528,0.7531,0.7544,0.7575,0.7579,0.7583,0.76,0.7605,0.7536,0.7536,0.7536,0,0.6969,0.7032,0.7059,0.7102,0.713,0.7149,0.7191,0.7221,0.7282,0.7301,0.7297,0.7392,0.7426,0.749,0.7502,0.7523,0.7535,0.7525,0.7576,0.7581,0.7585,0.7601,0.7607,0.7536,0.7536,0.7536,0.7536,0,0.7035,0.7078,0.7106,0.7162,0.7193,0.7236,0.727,0.7299,0.7313,0.7339,0.7395,0.7436,0.7488,0.7504,0.752,0.7571,0.7568,0.757,0.7562,0.759,0.7605,0.7612,0.7536,0.7536,0.7536,0.7536,0,0,0.7067,0.7136,0.7146,0.7172,0.7226,0.726,0.7303,0.7353,0.7376,0.7417,0.7454,0.7517,0.7519,0.7549,0.7569,0.7595,0.763,0.7594,0.7596,0.7599,0.7688,0.7686,0.7693,0.7637,0.7638,0.7639,0.7684,0,0.7109,0.7186,0.7212,0.7276,0.7316,0.7334,0.7371,0.7409,0.7434,0.7472,0.75,0.7544,0.7543,0.7561,0.7588,0.762,0.7648,0.7617,0.7672,0.7673,0.7659,0.7701,0.77,0.774,0.769,0.7691,0.7692,0,0.717,0.721,0.7278,0.7326,0.7344,0.7377,0.7424,0.746,0.7502,0.7519,0.7552,0.7569,0.7615,0.7604,0.7668,0.7646,0.767,0.7689,0.7691,0.7697,0.7684,0.7708,0.7754,0.7759,0.7702,0.7701,0.7701,0,0.7185,0.7257,0.7306,0.7328,0.7385,0.7408,0.7433,0.7475,0.7503,0.7544,0.7562,0.7608,0.7634,0.7669,0.7698,0.7688,0.7759,0.7751,0.7774,0.7773,0.7789,0.7787,0.7838,0.7804,0.7804,0.7804,0.7804,0,0.723,0.7271,0.7314,0.7344,0.739,0.7419,0.7464,0.749,0.7527,0.7563,0.7582,0.7615,0.7651,0.769,0.7713,0.7762,0.7773,0.7788,0.7793,0.7786,0.7784,0.7802,0.78,0.7806,0.7805,0.7805,0.7805,0,0.7256,0.7286,0.7341,0.7391,0.7404,0.7436,0.7478,0.7509,0.7534,0.7579,0.7592,0.7632,0.7678,0.771,0.7769,0.7785,0.7837,0.7843,0.7822,0.7825,0.7846,0.7843,0.791,0.792,0.788,0.788,0.7881,0,0.7282,0.7314,0.7366,0.7391,0.7416,0.7456,0.7484,0.7513,0.7542,0.7592,0.7616,0.7663,0.7702,0.7775,0.781,0.7855,0.7862,0.7882,0.7869,0.786,0.7862,0.7859,0.7862,0.7884,0.7884,0.7885,0.7885,0,0.7326,0.7339,0.7378,0.7422,0.7455,0.7491,0.7528,0.7548,0.7584,0.7615,0.7661,0.7691,0.7751,0.7797,0.7846,0.7872,0.7885,0.7888,0.7896,0.7889,0.7875,0.7882,0.7828,0.7887,0.7887,0.7887,0.7887,0.7886,0.7353,0.7381,0.7422,0.7465,0.7495,0.7529,0.7559,0.7588,0.7627,0.7677,0.7692,0.774,0.7782,0.7848,0.7875,0.7913,0.7912,0.7923,0.7926,0.7928,0.7927,0.7869,0.7922,0.7922,0.7922,0.7922,0.7922,0,0.7397,0.7423,0.7463,0.7513,0.7546,0.7554,0.7594,0.7622,0.7664,0.7701,0.7738,0.7792,0.7836,0.7874,0.792,0.7944,0.795,0.7955,0.7953,0.7959,0.7926,0.7915,0.7948,0.7948,0.7948,0.7948,0.7948,0.7948,0.7423,0.7472,0.7489,0.7553,0.758,0.7626,0.7649,0.768,0.7709,0.7767,0.7804,0.7828,0.7865,0.7914,0.7955,0.7965,0.7982,0.7985,0.7996,0.7965,0.7961,0.7959,0.7948,0.7988,0.7988,0.8025,0.8026,0.8026]},{"header":{"parameterUnit":"m.s-1","parameterCategory":1,"la1":30.2991,"la2":30.254,"lo1":-89.0895,"lo2":-89.0444,"dy":0.0017,"dx":0.0017,"nx":28,"ny":28,"refTime":"2023-10-22T21:00:00:Z","depth":0,"parameterNumber":3,"parameterNumberName":"V-component_of_WINDS"},"data":[0,0,0,0,0,0,0,0,0,0,0,0,0,0,0,0,0,0,0,0,0,0,0,0,0,0,0,0,0,0,0,0,0,0,0,0,0,0,0,0,0,0,0,0,0,0,0,0,0,0,0,0,0,0,0,0,0,0,2.6068,2.6068,0,2.6015,2.6014,2.6014,2.6033,2.6035,2.6036,2.6037,2.5975,2.5972,2.5969,0,0,0,0,0,0,0,0,0,0,0,0,0,2.618,2.6178,2.6068,2.6067,2.6067,2.6015,2.6014,2.6014,2.6033,2.6035,2.6036,2.6038,2.5976,2.5972,2.5969,0,0,0,0,0,0,0,0,0,0,0,0,0,2.6129,2.6177,2.6068,2.6071,2.607,2.6015,2.6014,2.6014,2.6033,2.6035,2.6036,2.6038,2.5977,2.5973,2.5968,2.5906,0,0,2.5956,2.5954,0,0,0,0,0,0,0,0,2.6132,2.6125,2.6071,2.607,2.607,2.6033,2.6031,2.5977,2.6032,2.6047,2.6037,2.6039,2.5992,2.5987,2.5972,2.5903,2.59,2.5955,2.5953,2.5951,2.595,0,0,0,0,0,0,0,2.6136,2.6127,2.6047,2.607,2.6069,2.6072,2.6067,2.6021,2.6009,2.6046,2.6047,2.6041,2.5992,2.5976,2.5971,2.5899,2.5955,2.5952,2.5949,2.5947,2.5776,2.5774,0,0,0,0,0,0,2.614,2.613,2.6049,2.6045,2.6106,2.6069,2.6063,2.6043,2.601,2.6007,2.6039,2.6042,2.5983,2.5976,2.5969,2.5894,2.5951,2.5947,2.5945,2.5778,2.5776,2.5773,0,0,0,0,0,0,2.6143,2.6133,2.6051,2.6088,2.6078,2.6065,2.6042,2.6041,2.6025,2.6005,2.6003,2.6026,2.5984,2.5975,2.5922,2.5892,2.5945,2.5941,2.578,2.5777,2.5774,2.5742,0,0,0,0,0,0,2.6146,2.6134,2.6111,2.6088,2.6076,2.6006,2.604,2.6038,2.6019,2.6022,2.5992,2.5989,2.5985,2.5928,2.5918,2.5887,2.5938,2.5783,2.5779,2.5775,2.5746,2.5739,2.5732,0,0,0,0,0,2.615,2.6102,2.611,2.61,2.6048,2.6005,2.5998,2.5996,2.6016,2.5993,2.598,2.599,2.5897,2.5923,2.5911,2.5878,2.5785,2.578,2.5776,2.5749,2.574,2.5733,0,0,0,0,0,0,2.6119,2.6099,2.6107,2.6051,2.603,2.6008,2.5978,2.5986,2.5957,2.596,2.5957,2.595,2.5896,2.5882,2.5911,2.5816,2.5844,2.5837,2.5827,2.5819,2.5812,2.5816,2.5935,0,0,0,0,0,2.6106,2.6075,2.6059,2.6011,2.6,2.5991,2.5972,2.5973,2.595,2.594,2.5923,2.5898,2.5864,2.5841,2.5807,2.5745,2.5738,2.5717,2.571,2.5704,2.5698,2.5663,2.5654,2.5758,2.5758,2.5759,0,0,2.6078,2.6064,2.6044,2.6004,2.5988,2.5954,2.5983,2.5945,2.592,2.5933,2.5883,2.587,2.5842,2.5784,2.5758,2.5771,2.5668,2.5698,2.5694,2.569,2.5658,2.5648,2.5639,2.5755,2.5756,2.5756,0,0,2.601,2.5997,2.5956,2.594,2.5916,2.591,2.5901,2.5878,2.5871,2.5821,2.5831,2.5799,2.574,2.572,2.5701,2.5628,2.5636,2.5617,2.558,2.5547,2.5539,2.5532,2.5505,2.5496,2.5611,2.5611,2.5611,0,2.5978,2.593,2.5933,2.5895,2.5877,2.5892,2.5849,2.5832,2.5797,2.5784,2.58,2.5726,2.5708,2.5646,2.5629,2.5613,2.5601,2.562,2.5541,2.5533,2.5526,2.5501,2.5491,2.5609,2.5609,2.5609,2.5609,0,2.5891,2.5857,2.5826,2.5796,2.5775,2.5734,2.573,2.5707,2.5711,2.5703,2.5652,2.5632,2.5595,2.5581,2.5582,2.5519,2.5528,2.5542,2.5569,2.5514,2.549,2.548,2.5606,2.5607,2.5607,2.5608,0,0,2.5799,2.5774,2.5762,2.5749,2.5725,2.5698,2.5658,2.5625,2.5606,2.5582,2.5547,2.5498,2.5512,2.5491,2.5491,2.5462,2.5405,2.548,2.5479,2.5466,2.5333,2.5322,2.5311,2.5411,2.5409,2.5407,2.5336,0,2.5729,2.5663,2.5665,2.5602,2.5571,2.5585,2.555,2.5531,2.5523,2.5494,2.5484,2.5449,2.547,2.5458,2.543,2.5418,2.5378,2.5423,2.5377,2.5375,2.5383,2.5298,2.5286,2.5219,2.5326,2.5325,2.5324,0,2.5638,2.5614,2.5549,2.5531,2.5518,2.5487,2.5458,2.543,2.5408,2.5404,2.5383,2.5387,2.5345,2.5375,2.5317,2.5347,2.5329,2.532,2.5317,2.5312,2.5345,2.529,2.5198,2.5188,2.5309,2.531,2.5311,0,2.5577,2.5529,2.5484,2.5472,2.545,2.5428,2.5417,2.5397,2.5378,2.5351,2.5339,2.5307,2.5289,2.5263,2.5259,2.5281,2.52,2.5229,2.5194,2.5194,2.5175,2.5176,2.5078,2.5164,2.5165,2.5165,2.5165,0,2.5498,2.5457,2.5457,2.5429,2.5384,2.5387,2.5341,2.5332,2.5314,2.5283,2.5293,2.5263,2.526,2.5229,2.5225,2.5177,2.5168,2.5163,2.5162,2.5162,2.5162,2.5149,2.5153,2.5162,2.5163,2.5163,2.5164,0,2.5422,2.5421,2.5372,2.5357,2.5352,2.5319,2.5304,2.5277,2.5271,2.5232,2.5223,2.5213,2.5177,2.5171,2.5128,2.5125,2.5068,2.5072,2.5076,2.5076,2.5042,2.5045,2.493,2.4915,2.5012,2.5011,2.5011,0,2.5371,2.5341,2.5323,2.5304,2.5293,2.5263,2.5244,2.5246,2.5226,2.5199,2.5175,2.5141,2.5113,2.5055,2.5043,2.501,2.5013,2.4975,2.5008,2.5008,2.5012,2.5013,2.501,2.4968,2.4967,2.4966,2.4966,0,2.528,2.5282,2.5256,2.523,2.5208,2.5187,2.5167,2.515,2.5149,2.5126,2.5091,2.507,2.5028,2.4994,2.4962,2.4948,2.4956,2.4956,2.4946,2.4945,2.4948,2.4946,2.5058,2.4958,2.4959,2.4959,2.496,2.496,2.5215,2.5189,2.5173,2.5144,2.513,2.5111,2.5085,2.5078,2.505,2.5018,2.502,2.4982,2.4961,2.4919,2.4904,2.4872,2.4884,2.487,2.4866,2.4862,2.4859,2.4955,2.4866,2.4866,2.4867,2.4867,2.4867,0,2.5124,2.5116,2.5089,2.5063,2.5039,2.5053,2.5032,2.5011,2.4978,2.4959,2.4933,2.4893,2.4861,2.4847,2.4814,2.4792,2.4795,2.4783,2.4784,2.4781,2.485,2.4862,2.4782,2.4782,2.4782,2.4782,2.4782,2.4782,2.5074,2.5032,2.5031,2.4981,2.4972,2.4937,2.4924,2.4907,2.4892,2.4848,2.4822,2.4815,2.4797,2.4764,2.4734,2.4731,2.4718,2.4705,2.4703,2.4767,2.4776,2.4784,2.4795,2.4702,2.4702,2.4636,2.4636,2.4635]}]]